[TLELIST] Archives

 

Current TLEs

January 12th 2008 PST

HST 1 20580U 90037B 08010.82652910 .00000454 00000-0 22344-4 0 450 2 20580 028.4701 276.0489 0004226 146.0216 214.0644 15.00325609771174 ISS (ZARYA) 1 25544U 98067A 08011.36496507 .00028970 00000-0 16474-3 0 6897 2 25544 051.6401 110.2356 0002979 051.6198 020.8484 15.78734851523627 CXO 1 25867U 99040B 08011.50000000 .00000364 00000-0 10000-3 0 1556 2 25867 062.9742 084.5597 6561034 280.8427 350.3228 00.37806127 3037 ____________________________________________________________________ These 2-Line ...Continue Reading

Current TLEs

January 11th 2008 PST

HST 1 20580U 90037B 08008.89740955 +.00000390 +00000-0 +17413-4 0 00585 2 20580 028.4702 288.6294 0004102 127.4243 232.6719 15.00324104770889 ISS (ZARYA) 1 25544U 98067A 08010.41050237 .00028618 00000-0 16320-3 0 6831 2 25544 051.6396 115.1731 0002608 048.9481 355.3162 15.78679215523478 CXO 1 25867U 99040B 08008.87500000 .00000315 00000-0 10000-3 0 1542 2 25867 062.9603 084.6248 6555325 280.8525 352.9991 00.37805507 3027 ____________________________________________________________________ These 2-Line ...Continue Reading

Current TLEs

January 10th 2008 PST

HST 1 20580U 90037B 08009.09697375 .00000403 00000-0 18390-4 0 440 2 20580 028.4701 287.3275 0004129 129.0710 231.0247 15.00324293770911 ISS (ZARYA) 1 25544U 98067A 08009.40284255 .00031377 00000-0 17894-3 0 6773 2 25544 051.6404 120.3822 0002603 052.2270 021.4972 15.78626231523319 CXO 1 25867U 99040B 08008.87500000 .00000315 00000-0 10000-3 0 1542 2 25867 062.9603 084.6248 6555325 280.8525 352.9991 00.37805507 3027 ____________________________________________________________________ These 2-Line ...Continue Reading

Current TLEs

January 9th 2008 PST

HST 1 20580U 90037B 08006.96828707 +.00000321 +00000-0 +12012-4 0 00475 2 20580 028.4701 301.2087 0003899 109.1144 250.9866 15.00322743770590 ISS (ZARYA) 1 25544U 98067A 08008.39587058 .00031796 00000-0 18178-3 0 6701 2 25544 051.6406 125.5891 0002530 047.5469 059.7464 15.78564124523154 CXO 1 25867U 99040B 08008.87500000 .00000315 00000-0 10000-3 0 1542 2 25867 062.9603 084.6248 6555325 280.8525 352.9991 00.37805507 3027 ____________________________________________________________________ These 2-Line ...Continue Reading

Current TLEs

January 8th 2008 PST

HST 1 20580U 90037B 08006.23655033 .00000322 00000-0 12126-4 0 427 2 20580 028.4701 305.9796 0003917 100.9992 259.1038 15.00322519770480 ISS (ZARYA) 1 25544U 98067A 08007.10960648 .00021417 00000-0 12445-3 0 6620 2 25544 051.6391 132.2370 0003056 041.7572 311.1055 15.78450804522945 CXO 1 25867U 99040B 08006.29166667 .00000275 00000-0 10000-3 0 1537 2 25867 062.9502 084.6849 6549411 280.8774 001.3165 00.37804275 3015 ____________________________________________________________________ These 2-Line ...Continue Reading

Current TLEs

January 7th 2008 PST

HST 1 20580U 90037B 08004.97264226 +.00000317 +00000-0 +11698-4 0 00568 2 20580 028.4696 314.2301 0003885 085.3717 274.7315 15.00322082770298 ISS (ZARYA) 1 25544U 98067A 08006.36667456 .00017757 00000-0 10411-3 0 6564 2 25544 051.6386 136.0782 0002327 038.6823 049.6681 15.78401988522837 CXO 1 25867U 99040B 08006.29166667 .00000275 00000-0 10000-3 0 1537 2 25867 062.9502 084.6849 6549411 280.8774 001.3165 00.37804275 3015 ____________________________________________________________________ These 2-Line ...Continue Reading

Current TLEs

January 6th 2008 PST

HST 1 20580U 90037B 08003.30960217 .00000306 00000-0 10862-4 0 400 2 20580 028.4695 325.0752 0003855 067.3666 292.7329 15.00321482770048 ISS (ZARYA) 1 25544U 98067A 08004.72996550 .00015442 00000-0 91331-4 0 6472 2 25544 051.6376 144.5379 0002259 033.2281 108.8032 15.78334141522570 CXO 1 25867U 99040B 08006.29166667 .00000275 00000-0 10000-3 0 1537 2 25867 062.9502 084.6849 6549411 280.8774 001.3165 00.37804275 3015 ____________________________________________________________________ These 2-Line ...Continue Reading

Current TLEs

January 5th 2008 PST

HST 1 20580U 90037B 08002.97699398 +.00000290 +00000-0 +96416-5 0 00447 2 20580 028.4695 327.2448 0003781 063.7898 296.3080 15.00321266769995 ISS (ZARYA) 1 25544U 98067A 08004.39670630 .00014942 00000-0 88559-4 0 6431 2 25544 051.6379 146.2605 0002218 033.8447 013.3246 15.78321167522525 CXO 1 25867U 99040B 08003.62500000 .00000257 00000-0 10000-3 0 1523 2 25867 062.9394 084.7361 6542797 280.9227 358.2660 00.37803773 3003 ____________________________________________________________________ These 2-Line ...Continue Reading

Current TLEs

January 4th 2008 PST

HST 1 20580U 90037B 08002.17873385 .00000297 00000-0 10135-4 0 393 2 20580 028.4694 332.4496 0003769 054.7889 305.3052 15.00321066769876 ISS (ZARYA) 1 25544U 98067A 08003.39150059 .00014027 00000-0 83503-4 0 6368 2 25544 051.6380 151.4563 0002224 029.5784 062.2380 15.78286420522367 CXO 1 25867U 99040B 08003.62500000 .00000257 00000-0 10000-3 0 1523 2 25867 062.9394 084.7361 6542797 280.9227 358.2660 00.37803773 3003 ____________________________________________________________________ These 2-Line ...Continue Reading

Current TLEs

January 3rd 2008 PST

HST 1 20580U 90037B 07365.98134308 +.00000294 +00000-0 +99389-5 0 00394 2 20580 028.4696 340.2586 0003636 041.8036 318.2833 15.00320765769694 ISS (ZARYA) 1 25544U 98067A 08001.55482480 .00012753 00000-0 76472-4 0 6248 2 25544 051.6375 160.9470 0001928 023.1427 066.1011 15.78228558522077 CXO 1 25867U 99040B 08001.00000000 +.00000264 +00000-0 +10000-3 0 01515 2 25867 062.9258 084.7757 6537144 280.9807 000.8623 00.37804474002990 ____________________________________________________________________ These 2-Line ...Continue Reading
  • This mailing list is a public mailing list - anyone may join or leave, at any time.
  • This mailing list is announce-only.

International Space Station (ISS) / Hubble Space Telescope (HST) / Chandra X-Ray Observatory Orbital Data via EMAIL

Privacy Policy:

Private list